227P/Catalina-LINEAR (2003)

Japanese version
Home page
Updated on October 4, 2009

---------------------------------------------------------------------

* Profile

Designation 227P/2004 EW38
Discovery Date March 14 and 16, 2004
Magnitude 20.0 mag, 19.7 mag
Discoverer Catalina Sky Survey, Lincoln Laboratory Near-Earth Asteroid Research project

* Orbital Elements

Epoch 2003 Nov. 17.0 TT = JDT 2452960.5
T 2003 Nov. 19.89684 TT                                 MPC
q   1.7933609            (2000.0)            P               Q
n   0.14497606     Peri.   90.23544     -0.76262827     -0.64097271
a   3.5887112      Node    49.90168     +0.53904634     -0.70404006
e   0.5002772      Incl.    6.52330     +0.35752924     -0.30574756
P   6.80

* Finding Charts

* Magnitudes Graph

        m1 = 15.0 + 5 log d + 10.0 log r

---------------------------------------------------------------------

The orbital elements are published on M.P.E.C. 2009-S126.
The charts are made with StellaNavigator Ver.2.0 for Windows (AstroArts / ASCII).
The magnitudes graphs are made with Comet for Windows.

---------------------------------------------------------------------

Copyright(C) Seiichi Yoshida (comet@aerith.net). All rights reserved.